Regional Weather Roundup
Issued by NWS

Home | Current Version | Previous Version | Text Only | Print | Product List | Glossary Off
Versions: 1 2 3 4 5 6 7 8 9 10 11 12 13 14 15 16 17 18 19 20 21 22 23 24 25 26 27 28 29 30 31 32 33 34 35 36 37 38 39 40 41 42 43 44 45 46 47 48 49 50

000
ASUS43 KOAX 020010
RWRNE

WEATHER ROUNDUP FOR NEBRASKA
NATIONAL WEATHER SERVICE OMAHA NE
600 PM CST SUN MAR 01 2015

NOTES: SATELLITE DATA IS BEING USED TO AUGMENT CLOUD COVER ABOVE
       12000 FEET.
       "FAIR" INDICATES FEW OR NO CLOUDS BELOW 12,000 FEET WITH NO
       SIGNIFICANT WEATHER AND/OR OBSTRUCTIONS TO VISIBILITY.

  * THESE STATIONS DO NOT REPORT WEATHER SUCH AS RAIN...SNOW OR FOG.

NEZ001>004-019>022-054>056-020100-
NEBRASKA PANHANDLE

CITY           SKY/WX    TMP DP  RH WIND       PRES   REMARKS
SCOTTSBLUFF    PTCLDY    33  10  38 SW6       30.24F WCI  28
6HR MIN TEMP:  30; 6HR MAX TEMP:  37;

ALLIANCE       CLEAR     33   8  35 N7        30.24S WCI  27
6HR MIN TEMP:  28; 6HR MAX TEMP:  35;

CHADRON        CLEAR     32   7  35 NW12      30.27S WCI  23
6HR MIN TEMP:  31; 6HR MAX TEMP:  35;

KIMBALL        PTCLDY    29  14  52 CALM      30.21S
SIDNEY         CLEAR     32  12  43 N3        30.25S
6HR MIN TEMP:  27; 6HR MAX TEMP:  34;

$$

NEZ057>060-069>072-079>082-020100-
SOUTHWEST NEBRASKA

CITY           SKY/WX    TMP DP  RH WIND       PRES   REMARKS
NORTH PLATTE   CLEAR     37  10  32 NW9       30.29S WCI  30
6HR MIN TEMP:  32; 6HR MAX TEMP:  40;

IMPERIAL         N/A     36  13  38 N5        30.28F WCI  32
6HR MIN TEMP:  31; 6HR MAX TEMP:  38;

LEXINGTON      PTCLDY    37  12  35 N5        30.32R WCI  34
MCCOOK         CLOUDY    38  10  31 NE5       30.31R WCI  34
6HR MIN TEMP:  35; 6HR MAX TEMP:  42;

OGALLALA       CLEAR     35  11  37 N3        30.28S
$$

NEZ005>010-023>029-035>040-094-020100-
NORTH CENTRAL NEBRASKA

CITY           SKY/WX    TMP DP  RH WIND       PRES   REMARKS
VALENTINE      CLEAR     32   6  33 N13G21    30.31S WCI  22
6HR MIN TEMP:  31; 6HR MAX TEMP:  36;

AINSWORTH      CLEAR     31   6  34 N9        30.31S WCI  23
BROKEN BOW     CLEAR     37  11  34 N9        30.30S WCI  30
6HR MIN TEMP:  33; 6HR MAX TEMP:  41;

O`NEILL        PTCLDY    33   7  32 NW12      30.34R WCI  25
ORD            CLEAR     34   9  35 N9        30.32S WCI  27
6HR MIN TEMP:  31; 6HR MAX TEMP:  39;

THEDFORD       CLEAR     34  10  37 N5        30.30R WCI  30
$$

NEZ041-046>049-061>064-073>077-083>087-020100-
SOUTH CENTRAL NEBRASKA

CITY           SKY/WX    TMP DP  RH WIND       PRES   REMARKS
GRAND ISLAND   CLEAR     36  13  38 N9        30.34R WCI  29
6HR MIN TEMP:  32; 6HR MAX TEMP:  40;

AURORA         CLEAR     35  13  40 N6        30.34S WCI  30
HASTINGS       CLEAR     37  11  34 N5        30.33R WCI  33
6HR MIN TEMP:  34; 6HR MAX TEMP:  40;

HEBRON         PTCLDY    36  13  38 CALM      30.36S
HOLDREGE       MOCLDY    37   9  32 NE3       30.32R
KEARNEY *      CLEAR     37  12  35 N8        30.33R WCI  31
YORK           CLEAR     36  14  41 NW8       30.34S WCI  29
$$

NEZ011>018-030>034-042>045-020100-
NORTHEAST NEBRASKA

CITY           SKY/WX    TMP DP  RH WIND       PRES   REMARKS
NORFOLK        CLEAR     35   9  33 NW13      30.34R WCI  26
6HR MIN TEMP:  32; 6HR MAX TEMP:  40;

ALBION         FAIR      35   6  29 NW12      30.34R WCI  27
BLAIR          CLEAR     37  16  42 NW9       30.35R WCI  30
COLUMBUS *     CLEAR     36  10  35 NW12      30.36S WCI  27
FREMONT        CLEAR     37  16  42 NW10      30.36R WCI  30
TEKAMAH        CLEAR     36  16  44 NW9       30.36R WCI  29
6HR MIN TEMP:  32; 6HR MAX TEMP:  40;

WAYNE          PTCLDY    34   8  33 NW13      30.36R WCI  25
$$

NEZ050>053-065>068-078-088>093-020100-
SOUTHEAST NEBRASKA

CITY           SKY/WX    TMP DP  RH WIND       PRES   REMARKS
LINCOLN        CLEAR     39  14  36 NW5       30.37S
6HR MIN TEMP:  33; 6HR MAX TEMP:  42;

OMAHA EPPLEY   PTCLDY    35  17  47 NW9       30.36R WCI  28
6HR MIN TEMP:  32; 6HR MAX TEMP:  40;

BEATRICE       PTCLDY    34  16  47 CALM      30.37R
FALLS CITY     CLOUDY    36  17  46 CALM      30.37R
6HR MIN TEMP:  29; 6HR MAX TEMP:  39;

NEBRASKA CITY  PTCLDY    34  11  38 NW5       30.37R WCI  30
PLATTSMOUTH    CLEAR     35  12  38 W3        30.36S
$$

NEZ044-045-051>053-067-020100-
OMAHA AREA

CITY           SKY/WX    TMP DP  RH WIND       PRES   REMARKS
OMAHA EPPLEY   PTCLDY    35  17  47 NW9       30.36R WCI  28
6HR MIN TEMP:  32; 6HR MAX TEMP:  40;

BLAIR          CLEAR     37  16  42 NW9       30.35R WCI  30
FREMONT        CLEAR     37  16  42 NW10      30.36R WCI  30
MILLARD        PTCLDY    39  16  38 NW5       30.36R
OFFUTT AFB     CLEAR     34  16  47 NW5       30.35S WCI  30
PLATTSMOUTH    CLEAR     35  12  38 W3        30.36S
WAHOO          FAIR      37  13  36 NW7       30.35S WCI  32
$$



USA.gov is the U.S. government's official web portal to all federal, state and local government web resources and services.